Regional Weather Roundup
Issued by NWS

Home | Current Version | Previous Version | Text Only | Print | Product List | Glossary Off
Versions: 1 2 3 4 5 6 7 8 9 10 11 12 13 14 15 16 17 18 19 20 21 22 23 24 25 26 27 28 29 30 31 32 33 34 35 36 37 38 39 40 41 42 43 44 45 46 47 48 49 50

000
ASUS43 KLSX 041159
RWRMO

WEATHER SUMMARY FOR MISSOURI
NATIONAL WEATHER SERVICE SPRINGFIELD MO
600 AM CST WED MAR 04 2015

NOTE: "FAIR" INDICATES FEW OR NO CLOUDS BELOW 12,000 FEET WITH NO
       SIGNIFICANT WEATHER AND/OR OBSTRUCTIONS TO VISIBILITY.
       CURRENT SKY AND/OR WEATHER CONDITIONS ARE NOT AVAILABLE FOR
       CHILLICOTHE AND FARMINGTON.

MOZ001>031-035>038-043-044-053-054-041300-
...NORTHERN AND WESTERN MISSOURI...

CITY           SKY/WX    TMP DP  RH WIND       PRES   REMARKS
KANSAS CTY INT CLOUDY    19   6  57 N14       30.21R WCI   6
6HR MIN TEMP:  19; 6HR MAX TEMP:  27;

KANSAS C DTWN  CLOUDY    21   5  50 NE12      30.23R WCI   9
6HR MIN TEMP:  21; 6HR MAX TEMP:  30;

LEE`S SUMMIT   CLOUDY    20   5  52 N22G31    30.20R WCI   3
6HR MIN TEMP:  20; 6HR MAX TEMP:  30;

ST JOSEPH      CLOUDY    18   9  68 N16       30.25R WCI   3
6HR MIN TEMP:  18; 6HR MAX TEMP:  22;

CHILLICOTHE      N/A     19   7  59 N9        30.23R WCI   8
6HR MIN TEMP:  19; 6HR MAX TEMP:  29;


$$
MOZ066>068-077>081-088>096-101>105-041300-
...SOUTHWEST MISSOURI...

CITY           SKY/WX    TMP DP  RH WIND       PRES   REMARKS
SPRINGFIELD    CLOUDY    32  28  85 N15G25    30.02R WCI  22
6HR MIN TEMP:  32; 6HR MAX TEMP:  38; 6HR PCP: TRACE;

JOPLIN         CLOUDY    30  25  81 N17       30.09R WCI  18
6HR MIN TEMP:  30; 6HR MAX TEMP:  37;


$$
MOZ032>034-039>042-045>050-055>058-069>072-041300-
...CENTRAL MISSOURI...

CITY           SKY/WX    TMP DP  RH WIND       PRES   REMARKS
COLUMBIA       CLOUDY    24  16  71 N20G30    30.13R WCI  10
6HR MIN TEMP:  24; 6HR MAX TEMP:  34;

JEFFERSON CITY CLOUDY    27  16  63 N15G22    30.15R WCI  15
6HR MIN TEMP:  27; 6HR MAX TEMP:  37; 6HR PCP: TRACE;

ROLLA          CLOUDY    28  23  81 N17G24    30.05R WCI  16
6HR MIN TEMP:  28; 6HR MAX TEMP:  35; 6HR PCP:  0.08;

SEDALIA        LGT SNOW  22  17  81 N21       30.17R VSB 3/4 WCI   6
6HR MIN TEMP:  22; 6HR MAX TEMP:  34; 6HR PCP: TRACE;

WHITEMAN AFB   LGT SNOW  19  16  86 N15       30.17R WCI   5
OSAGE BEACH    CLOUDY    30  25  80 NW8       30.08R WCI  23

$$
MOZ051-052-059>065-041300-
...EAST CENTRAL MISSOURI...

CITY           SKY/WX    TMP DP  RH WIND       PRES   REMARKS
ST LOUIS INTL  FLURRIES  29  19  66 N18G24    30.06R WCI  16
6HR MIN TEMP:  29; 6HR MAX TEMP:  37; 6HR PCP:  0.01;

SPIRIT OF STL  CLOUDY    27  18  69 N16G22    30.08R WCI  15
6HR MIN TEMP:  27; 6HR MAX TEMP:  36; 6HR PCP:  0.01;

ST CHARLES     CLOUDY    25  17  72 N18       30.09R WCI  11
6HR MIN TEMP:  25; 6HR MAX TEMP:  35;


$$
MOZ072>076-082>087-097>100-106>115-041300-
...SOUTH CENTRAL AND SOUTHEAST MISSOURI...

CITY           SKY/WX    TMP DP  RH WIND       PRES   REMARKS
CAPE GIRARDEAU LGT RAIN  36  35  96 N8        29.99R WCI  30
6HR MIN TEMP:  36; 6HR MAX TEMP:  42; 6HR PCP:  0.51;

FARMINGTON     CLOUDY    32  30  93 N6        30.03S WCI  26
6HR MIN TEMP:  32; 6HR MAX TEMP:  39; 6HR PCP:  0.26;

POPLAR BLUFF   LGT RAIN  38  34  85 N15       29.96R WCI  29
6HR MIN TEMP:  38; 6HR MAX TEMP:  44; 6HR PCP:  0.53;

WEST PLAINS    MIX PCPN  34  31  88 N12G18    29.97R FOG     WCI  25
6HR MIN TEMP:  34; 6HR MAX TEMP:  42; 6HR PCP:  0.07;


$$



USA.gov is the U.S. government's official web portal to all federal, state and local government web resources and services.